[[{"header":{"parameterUnit":"m.s-1","parameterCategory":1,"la1":30.2991,"la2":30.254,"lo1":-89.0895,"lo2":-89.0444,"dy":0.0017,"dx":0.0017,"nx":28,"ny":28,"refTime":"2024-05-12T21:00:00:Z","depth":0,"parameterNumber":2,"parameterNumberName":"U-component_of_WINDS"},"data":[0,0,0,0,0,0,0,0,0,0,0,0,0,0,0,0,0,0,0,0,0,0,0,0,0,0,0,0,0,0,0,0,0,0,0,0,0,0,0,0,0,0,0,0,0,0,0,0,0,0,0,0,0,0,0,0,0,0,-3.7539,-3.7541,0,-3.7736,-3.7739,-3.7741,-3.7758,-3.7755,-3.7753,-3.7751,-3.7952,-3.7959,-3.7967,0,0,0,0,0,0,0,0,0,0,0,0,0,-3.7176,-3.7183,-3.7539,-3.7541,-3.7544,-3.7736,-3.7739,-3.7741,-3.7758,-3.7755,-3.7753,-3.775,-3.795,-3.7959,-3.7967,0,0,0,0,0,0,0,0,0,0,0,0,0,-3.7349,-3.7185,-3.7538,-3.7575,-3.758,-3.7735,-3.7739,-3.7742,-3.7759,-3.7755,-3.7752,-3.7749,-3.7947,-3.7958,-3.7969,-3.81,0,0,-3.8002,-3.8007,0,0,0,0,0,0,0,0,-3.734,-3.7363,-3.7567,-3.7573,-3.7579,-3.7719,-3.7685,-3.7862,-3.7759,-3.7691,-3.7751,-3.7748,-3.7877,-3.7894,-3.7938,-3.8109,-3.8118,-3.8003,-3.801,-3.8014,-3.8018,0,0,0,0,0,0,0,-3.7328,-3.7354,-3.7617,-3.757,-3.7578,-3.7582,-3.7603,-3.7718,-3.7799,-3.7697,-3.7698,-3.7722,-3.788,-3.7927,-3.7943,-3.8121,-3.8003,-3.8013,-3.8019,-3.8024,-3.8412,-3.8415,0,0,0,0,0,0,-3.7309,-3.7344,-3.7611,-3.7623,-3.7449,-3.7591,-3.7615,-3.7677,-3.7798,-3.7814,-3.7724,-3.7722,-3.791,-3.793,-3.795,-3.8112,-3.8014,-3.8025,-3.8031,-3.8408,-3.8412,-3.8416,0,0,0,0,0,0,-3.7301,-3.7332,-3.7603,-3.7484,-3.7519,-3.7601,-3.7671,-3.7683,-3.773,-3.7819,-3.7833,-3.7757,-3.7908,-3.7934,-3.8063,-3.8119,-3.803,-3.804,-3.8404,-3.8409,-3.8414,-3.8436,0,0,0,0,0,0,-3.729,-3.7329,-3.738,-3.7485,-3.7525,-3.7712,-3.7674,-3.7689,-3.7749,-3.7748,-3.7854,-3.7869,-3.7908,-3.8046,-3.8074,-3.8132,-3.8048,-3.8399,-3.8406,-3.8413,-3.8431,-3.8442,-3.8451,0,0,0,0,0,-3.7277,-3.7378,-3.7382,-3.7414,-3.759,-3.7715,-3.7738,-3.7781,-3.7754,-3.7805,-3.7863,-3.7865,-3.8109,-3.8059,-3.809,-3.8153,-3.8395,-3.8404,-3.8412,-3.8426,-3.844,-3.8451,0,0,0,0,0,0,-3.7275,-3.7392,-3.7398,-3.7536,-3.7616,-3.7718,-3.7784,-3.7794,-3.7883,-3.7878,-3.7928,-3.7952,-3.8079,-3.8129,-3.8072,-3.8287,-3.8249,-3.8264,-3.8249,-3.8263,-3.8273,-3.8257,-3.8057,0,0,0,0,0,-3.7291,-3.7384,-3.748,-3.7592,-3.7632,-3.7701,-3.7758,-3.7784,-3.7869,-3.7903,-3.7969,-3.8051,-3.8146,-3.8208,-3.83,-3.8439,-3.8463,-3.8498,-3.8508,-3.8516,-3.8528,-3.8606,-3.8623,-3.8444,-3.8444,-3.8444,0,0,-3.7324,-3.7399,-3.7454,-3.7594,-3.7659,-3.7753,-3.7729,-3.783,-3.7901,-3.7918,-3.8043,-3.8095,-3.819,-3.8325,-3.8387,-3.8371,-3.8583,-3.8527,-3.8532,-3.854,-3.8616,-3.8633,-3.8648,-3.845,-3.8449,-3.8448,0,0,-3.7432,-3.7499,-3.7599,-3.7666,-3.7765,-3.7811,-3.7835,-3.7937,-3.7972,-3.81,-3.8115,-3.82,-3.8362,-3.843,-3.8485,-3.8622,-3.8627,-3.8651,-3.8703,-3.8779,-3.8793,-3.8805,-3.8854,-3.8871,-3.8662,-3.8663,-3.8663,0,-3.746,-3.7603,-3.7649,-3.7751,-3.7811,-3.7833,-3.7935,-3.7998,-3.8122,-3.8163,-3.8143,-3.8349,-3.8415,-3.8565,-3.8599,-3.8643,-3.8673,-3.8637,-3.8787,-3.88,-3.8813,-3.886,-3.8878,-3.8665,-3.8664,-3.8664,-3.8664,0,-3.7633,-3.7732,-3.7802,-3.7922,-3.7991,-3.8092,-3.8154,-3.8219,-3.8241,-3.8289,-3.8418,-3.8498,-3.8607,-3.8646,-3.8667,-3.8801,-3.8787,-3.8777,-3.8739,-3.8831,-3.8876,-3.8894,-3.8668,-3.8667,-3.8666,-3.8666,0,0,-3.7742,-3.7889,-3.7913,-3.7969,-3.8081,-3.8159,-3.8262,-3.837,-3.8424,-3.851,-3.8597,-3.8736,-3.8728,-3.8791,-3.8821,-3.8887,-3.8991,-3.8869,-3.8872,-3.8888,-3.9142,-3.9148,-3.9168,-3.8996,-3.9,-3.9003,-3.9134,0,-3.7862,-3.8045,-3.8091,-3.8248,-3.834,-3.8364,-3.8453,-3.8532,-3.8581,-3.8667,-3.872,-3.8818,-3.8799,-3.8838,-3.8905,-3.8964,-3.9042,-3.8955,-3.9078,-3.9081,-3.9051,-3.9192,-3.9198,-3.9318,-3.9152,-3.9155,-3.9157,0,-3.8026,-3.8116,-3.8282,-3.8384,-3.8424,-3.8504,-3.8607,-3.8689,-3.878,-3.8811,-3.8883,-3.8907,-3.9015,-3.8974,-3.9124,-3.9064,-3.9118,-3.9155,-3.916,-3.9172,-3.9123,-3.9206,-3.9357,-3.9375,-3.9185,-3.9183,-3.9181,0,-3.8088,-3.8251,-3.8372,-3.8419,-3.8541,-3.8596,-3.865,-3.8738,-3.88,-3.8891,-3.8932,-3.9034,-3.9089,-3.9168,-3.922,-3.9185,-3.9366,-3.9329,-3.9394,-3.9393,-3.943,-3.9426,-3.959,-3.9467,-3.9466,-3.9466,-3.9465,0,-3.8216,-3.8316,-3.8402,-3.8475,-3.8589,-3.8642,-3.8753,-3.8807,-3.8885,-3.897,-3.8998,-3.9077,-3.9141,-3.9229,-3.927,-3.9389,-3.9414,-3.9442,-3.9451,-3.9439,-3.9435,-3.9473,-3.9465,-3.9471,-3.947,-3.9469,-3.9468,0,-3.8303,-3.8365,-3.8497,-3.8603,-3.8632,-3.8711,-3.8802,-3.8875,-3.8925,-3.9033,-3.9061,-3.914,-3.9246,-3.9306,-3.9439,-3.9467,-3.9598,-3.9604,-3.9568,-3.9571,-3.9633,-3.9626,-3.9826,-3.9855,-3.9713,-3.9714,-3.9715,0,-3.838,-3.8458,-3.8573,-3.8632,-3.8687,-3.8782,-3.8846,-3.8902,-3.8968,-3.9078,-3.9138,-3.9246,-3.9334,-3.9503,-3.9572,-3.9674,-3.9682,-3.9745,-3.9697,-3.9683,-3.9682,-3.9676,-3.9685,-3.9753,-3.9754,-3.9755,-3.9756,0,-3.851,-3.8537,-3.8628,-3.8732,-3.8808,-3.8892,-3.8975,-3.9022,-3.9092,-3.9165,-3.9273,-3.9342,-3.9479,-3.9586,-3.9694,-3.975,-3.9765,-3.9771,-3.9791,-3.9778,-3.9754,-3.9767,-3.9589,-3.9765,-3.9765,-3.9764,-3.9763,-3.9763,-3.8594,-3.8664,-3.8756,-3.8858,-3.8927,-3.9005,-3.9079,-3.9139,-3.9231,-3.9347,-3.9375,-3.9489,-3.958,-3.9727,-3.9786,-3.9877,-3.9865,-3.9895,-3.9902,-3.9909,-3.991,-3.9741,-3.9897,-3.9897,-3.9897,-3.9897,-3.9896,0,-3.8724,-3.8785,-3.8878,-3.8994,-3.9075,-3.9084,-3.9177,-3.9243,-3.9344,-3.9427,-3.9515,-3.9641,-3.9745,-3.9824,-3.9931,-3.9988,-3.9998,-4.0014,-4.001,-4.0023,-3.9915,-3.9886,-4.0005,-4.0005,-4.0005,-4.0005,-4.0005,-4.0005,-3.8801,-3.8921,-3.896,-3.9115,-3.9175,-3.9288,-3.9341,-3.9413,-3.948,-3.9619,-3.9706,-3.9757,-3.984,-3.9953,-4.0049,-4.007,-4.0108,-4.0123,-4.0144,-4.0042,-4.003,-4.0019,-3.9992,-4.0131,-4.0131,-4.0245,-4.0246,-4.0246]},{"header":{"parameterUnit":"m.s-1","parameterCategory":1,"la1":30.2991,"la2":30.254,"lo1":-89.0895,"lo2":-89.0444,"dy":0.0017,"dx":0.0017,"nx":28,"ny":28,"refTime":"2024-05-12T21:00:00:Z","depth":0,"parameterNumber":3,"parameterNumberName":"V-component_of_WINDS"},"data":[0,0,0,0,0,0,0,0,0,0,0,0,0,0,0,0,0,0,0,0,0,0,0,0,0,0,0,0,0,0,0,0,0,0,0,0,0,0,0,0,0,0,0,0,0,0,0,0,0,0,0,0,0,0,0,0,0,0,3.1,3.0999,0,3.0955,3.0954,3.0954,3.0923,3.0922,3.0922,3.0922,3.0871,3.087,3.0869,0,0,0,0,0,0,0,0,0,0,0,0,0,3.1054,3.1053,3.1,3.0999,3.0999,3.0955,3.0954,3.0954,3.0923,3.0922,3.0922,3.0922,3.0871,3.087,3.0869,0,0,0,0,0,0,0,0,0,0,0,0,0,3.1022,3.1053,3.1,3.0978,3.0976,3.0955,3.0954,3.0954,3.0923,3.0922,3.0922,3.0922,3.0872,3.087,3.0868,3.0864,0,0,3.0863,3.0862,0,0,0,0,0,0,0,0,3.1024,3.102,3.0982,3.098,3.0977,3.0944,3.0955,3.0923,3.0923,3.0943,3.0922,3.0922,3.0895,3.0892,3.0884,3.0862,3.086,3.0863,3.0862,3.0861,3.0861,0,0,0,0,0,0,0,3.1026,3.1022,3.0982,3.0981,3.0978,3.0969,3.0964,3.0949,3.0921,3.0941,3.0939,3.0934,3.0894,3.0885,3.0882,3.0859,3.0863,3.0861,3.086,3.086,3.0831,3.0831,0,0,0,0,0,0,3.1032,3.1024,3.0983,3.0981,3.1,3.0968,3.0963,3.0955,3.0921,3.0916,3.0934,3.0933,3.0889,3.0884,3.088,3.0873,3.0861,3.0859,3.0859,3.0831,3.0831,3.0831,0,0,0,0,0,0,3.1034,3.1029,3.0985,3.1002,3.0995,3.0968,3.0959,3.0954,3.0946,3.0916,3.0911,3.0931,3.0888,3.0883,3.0869,3.0871,3.0859,3.0857,3.083,3.0831,3.0831,3.0859,0,0,0,0,0,0,3.1035,3.103,3.1029,3.1002,3.0995,3.0976,3.0959,3.0954,3.0944,3.0941,3.0912,3.0907,3.0887,3.0872,3.0867,3.0868,3.0856,3.083,3.0831,3.0831,3.0857,3.086,3.0862,0,0,0,0,0,3.1037,3.1037,3.1029,3.1024,3.0993,3.0976,3.0972,3.0951,3.0944,3.0942,3.0923,3.0908,3.0872,3.087,3.0865,3.0866,3.083,3.083,3.0831,3.0856,3.0859,3.0862,0,0,0,0,0,0,3.1064,3.1033,3.1024,3.1015,3.0999,3.0971,3.0968,3.0955,3.0939,3.0937,3.091,3.0904,3.0892,3.0877,3.0877,3.086,3.0849,3.0848,3.087,3.0872,3.0875,3.0878,3.0854,0,0,0,0,0,3.1069,3.1059,3.1032,3.1027,3.102,3.0996,3.0987,3.0973,3.0954,3.0946,3.0926,3.0907,3.0891,3.0881,3.0865,3.0855,3.0848,3.0853,3.0855,3.0858,3.0857,3.085,3.0852,3.0833,3.0833,3.0833,0,0,3.1079,3.1061,3.1056,3.1032,3.1018,3.1007,3.099,3.0979,3.097,3.0944,3.093,3.0915,3.0891,3.0879,3.0873,3.0867,3.0861,3.0858,3.086,3.0858,3.0851,3.0853,3.0854,3.0834,3.0834,3.0834,0,0,3.1091,3.1077,3.1071,3.1057,3.1036,3.102,3.1019,3.0993,3.0982,3.0968,3.0949,3.0937,3.0911,3.0895,3.0883,3.089,3.0875,3.0885,3.0897,3.0891,3.0892,3.0893,3.0895,3.0896,3.0885,3.0885,3.0885,0,3.1105,3.1089,3.1069,3.106,3.1049,3.1028,3.1021,3.1008,3.0982,3.0974,3.0968,3.0935,3.0917,3.0901,3.0903,3.0895,3.0891,3.0888,3.0894,3.0895,3.0895,3.0896,3.0897,3.0887,3.0887,3.0886,3.0886,0,3.1107,3.1097,3.1094,3.1071,3.1061,3.1053,3.103,3.1022,3.1009,3.0993,3.0978,3.0957,3.0936,3.0931,3.0918,3.0913,3.091,3.0899,3.0887,3.0899,3.0899,3.09,3.0889,3.0888,3.0888,3.0887,0,0,3.1133,3.1101,3.11,3.109,3.1065,3.1055,3.1046,3.1027,3.102,3.1003,3.0993,3.0972,3.0962,3.0949,3.0933,3.0928,3.0933,3.0917,3.0916,3.092,3.0926,3.0933,3.0934,3.0924,3.0924,3.0924,3.0928,0,3.1141,3.1124,3.1107,3.1095,3.1084,3.1064,3.1055,3.1038,3.1024,3.1011,3.0994,3.0979,3.0968,3.0959,3.0953,3.0934,3.0934,3.0934,3.0912,3.0912,3.0918,3.0935,3.0942,3.0947,3.0928,3.0928,3.0928,0,3.1147,3.1133,3.1121,3.1098,3.1092,3.1085,3.1067,3.1056,3.1036,3.1025,3.1011,3.0995,3.0982,3.0973,3.0954,3.0954,3.0945,3.0934,3.0934,3.093,3.092,3.093,3.0948,3.0949,3.0928,3.0928,3.0928,0,3.1167,3.1144,3.1134,3.1126,3.1098,3.1094,3.1082,3.1062,3.1052,3.1035,3.1028,3.1009,3.0999,3.0984,3.0963,3.0958,3.0946,3.0935,3.0935,3.0936,3.0932,3.0932,3.0948,3.0928,3.0928,3.0928,3.0928,0,3.1176,3.1169,3.1143,3.1136,3.1128,3.1107,3.1099,3.1085,3.1067,3.1057,3.1037,3.1028,3.1001,3.0987,3.097,3.0957,3.0952,3.0942,3.0937,3.0943,3.0944,3.0935,3.0934,3.0928,3.0928,3.0928,3.0928,0,3.1196,3.1178,3.1165,3.1141,3.1135,3.1129,3.1108,3.11,3.1085,3.1071,3.1067,3.1042,3.1025,3.1003,3.0979,3.0967,3.0955,3.0949,3.0963,3.096,3.0961,3.0961,3.097,3.097,3.0952,3.0952,3.0952,0,3.1202,3.1197,3.1173,3.1165,3.1154,3.1142,3.1132,3.1112,3.1102,3.1079,3.1074,3.1056,3.104,3.1014,3.0993,3.0974,3.0966,3.0971,3.0963,3.0969,3.0965,3.0965,3.0964,3.0972,3.0972,3.0973,3.0973,0,3.1216,3.1208,3.1195,3.1179,3.1169,3.1155,3.114,3.1134,3.111,3.11,3.1083,3.1072,3.1048,3.1029,3.1008,3.0994,3.0979,3.0976,3.0975,3.098,3.0988,3.0983,3.0967,3.0975,3.0975,3.0975,3.0975,3.0975,3.1228,3.1223,3.1205,3.1191,3.1178,3.1165,3.1157,3.1141,3.1128,3.1108,3.1096,3.108,3.1059,3.1029,3.1016,3.1002,3.0996,3.0994,3.0994,3.0994,3.0995,3.0991,3.0998,3.0998,3.0998,3.0997,3.0997,0,3.124,3.1228,3.1216,3.1197,3.1186,3.1175,3.1158,3.1149,3.1136,3.1119,3.1105,3.1086,3.1068,3.1046,3.1027,3.102,3.1012,3.1015,3.1015,3.1011,3.1002,3.1004,3.1021,3.1021,3.1021,3.1021,3.1021,3.1021,3.1245,3.1235,3.1224,3.1207,3.1194,3.118,3.1171,3.1158,3.1144,3.1125,3.1111,3.1097,3.1078,3.1057,3.104,3.1034,3.1027,3.1032,3.1023,3.1014,3.1012,3.101,3.1012,3.1031,3.1031,3.1034,3.1034,3.1034]}]]